Location: Lewisville
(33.0462°N, 96.9942°W)
Time: 19:00:14
(UTC-06:00)

Hubble Space Telescope - Pass Details

Date: 17 September 2019
Orbit: 536 x 540 km, 28.5° (Epoch: 19 November)

Event Time Altitude Azimuth Distance (km) Brightness Sun altitude
Exits shadow 06:26:37 14° 252° (WSW) 1,519 2.4 -10.4°
Maximum altitude 06:29:48 42° 185° (S) 772 1.4 -9.8°
Drops below altitude 10° 06:33:42 10° 114° (ESE) 1,781 4.4 -9.0°
Sets 06:36:02 0° 107° (ESE) 2,672 5.6 -8.5°
